Temperature
23 22 21 21 21 20 20 20 19 19 19 19 19 18 18 18 18 18 18 18 18 18 18 18 18 18 18 18 18 17 17 17 17 18 18 18 18 18 18 18 18 17 17
23 22 21 21 21 20 20 20 20 19 19 19 19 18 18 18 18 18 18 18 18 18 18 18 18 18 18 18 17 17 17 17 17 18 18 19 18 18 18 17 17 17 17
24 23 22 21 21 20 20 20 20 20 19 19 19 18 18 18 18 18 18 18 18 18 18 18 17 17 17 17 17 17 17 17 17 18 18 19 19 18 18 17 17 17 17
25 24 23 22 21 21 20 20 20 20 20 19 19 19 19 18 18 18 18 18 18 18 18 17 17 17 17 17 17 17 17 17 18 18 18 18 18 18 18 18 18 17 17
25 24 23 22 21 21 20 20 20 20 19 19 19 19 18 18 18 18 18 17 17 17 17 17 17 17 17 17 17 17 17 17 17 17 18 18 18 18 18 18 18 17 17
25 24 23 22 21 21 20 20 19 19 19 19 18 18 18 18 18 18 17 17 17 17 17 17 17 17 17 17 17 17 17 17 17 17 17 17 18 18 18 18 17 17 17
25 24 23 22 21 21 20 20 19 19 19 19 18 18 18 18 17 17 17 17 17 17 17 17 17 17 17 17 17 17 17 17 17 17 17 17 17 17 17 18 17 17 17
25 24 23 22 21 21 20 20 19 19 19 18 18 18 18 18 17 17 17 17 17 17 17 17 16 17 17 17 17 16 17 17 17 17 17 17 17 17 17 17 17 17 17
25 24 23 22 21 21 20 20 19 19 19 18 18 18 18 17 17 17 17 17 17 17 16 16 16 16 16 16 16 16 16 16 16 16 16 16 16 16 16 16 17 17 18
25 24 23 22 21 21 20 20 19 19 18 18 18 18 17 17 17 17 17 16 16 16 16 16 16 16 16 16 16 16 16 16 16 16 16 16 16 16 16 16 16 16 17
25 24 23 22 21 21 20 20 19 19 18 18 18 18 17 17 17 16 16 16 16 16 16 16 16 16 16 16 16 16 16 16 16 16 16 16 16 16 16 16 16 16 16
24 23 23 22 21 21 20 19 19 19 18 18 18 18 17 17 17 16 16 16 16 16 16 16 15 15 15 15 15 15 15 15 15 15 15 15 15 15 15 15 15 15 15
23 22 22 21 21 20 19 19 19 18 18 18 18 17 17 17 16 16 16 16 16 15 15 15 15 15 15 15 15 15 15 15 15 15 15 14 14 14 15 15 15 15 15
22 22 21 21 20 19 19 18 18 18 18 18 18 17 17 17 16 16 16 15 15 15 15 15 15 15 15 15 14 14 14 14 14 14 14 14 14 14 14 14 14 14 14
22 21 20 20 19 19 18 18 18 18 18 17 17 17 17 16 16 16 15 15 15 15 15 15 15 15 14 14 14 14 14 14 14 14 14 14 14 14 14 14 14 14 14
21 21 20 19 19 19 18 18 18 18 17 17 17 17 16 16 16 15 15 15 15 15 15 15 14 14 14 14 14 14 14 14 13 13 13 13 13 13 14 14 13 13 13
21 20 20 19 19 18 18 18 18 17 17 17 17 16 16 16 15 15 15 15 15 14 14 14 14 14 14 14 14 14 13 13 13 13 13 13 13 13 13 13 13 13 13
20 20 20 19 19 18 18 18 17 17 17 17 16 16 16 16 15 15 15 15 14 14 14 14 14 14 14 14 14 14 13 13 13 12 12 12 12 12 12 12 12 12 12
19 19 19 19 18 18 17 17 17 17 16 16 16 16 16 16 15 15 15 15 14 14 14 14 14 13 13 14 13 13 13 12 12 12 12 12 12 12 12 12 11 11 12
19 19 19 18 18 17 17 17 16 16 16 16 16 15 15 15 15 15 14 14 14 14 14 13 13 13 13 13 13 13 12 12 12 12 12 12 12 12 12 11 11 11 11
18 18 18 18 17 17 17 16 16 16 16 15 15 15 15 15 15 14 14 14 14 13 13 13 13 13 13 13 13 13 12 12 12 12 12 12 12 11 11 11 11 11 11
17 17 17 17 16 16 16 16 15 15 15 15 14 14 14 14 14 14 14 13 13 13 13 13 13 12 12 12 12 12 12 12 11 11 11 11 11 11 11 11 11 11 11
16 16 16 16 16 15 15 15 15 15 14 14 14 14 14 14 14 13 13 13 13 13 13 13 12 12 12 12 11 11 11 11 11 11 11 11 11 10 10 10 11 11 10
16 15 15 15 15 15 15 14 14 14 14 14 13 13 13 13 13 13 13 13 12 12 12 12 12 12 12 11 11 11 11 11 10 10 10 10 10 10 10 10 10 10 10
15 15 15 15 15 14 14 14 14 14 13 13 13 13 13 13 13 12 12 12 12 12 11 11 11 11 11 11 11 11 10 10 10 10 10 10 10 10 10 10 10 10 10
14 14 14 14 14 14 14 14 13 13 13 13 12 13 13 13 13 12 12 12 12 11 11 11 11 11 11 11 10 10 10 10 10 9 10 10 10 10 10 10 10 10 10
Wind_Speed
6 6 6 6 5 4 4 3 3 3 2 2 2 2 3 3 3 4 4 4 4 4 4 4 4 3 4 4 4 3 3 2 2 2 2 3 3 3 2 2 1 2 3
7 7 6 6 6 5 4 4 4 3 3 2 2 2 2 2 3 3 4 3 4 4 4 4 3 3 3 3 3 2 1 2 1 0 1 2 2 2 1 2 2 1 2
8 8 8 7 6 5 5 4 4 4 3 3 3 3 3 2 3 3 3 3 3 3 4 3 3 2 2 3 2 1 1 1 1 1 1 0 1 1 2 1 1 1 1
9 8 9 8 7 6 5 5 5 4 4 4 3 3 3 3 2 2 3 3 3 3 3 2 2 1 1 2 1 1 1 1 1 0 1 2 1 1 1 1 2 1 1
8 8 8 8 7 6 6 6 5 4 4 3 4 3 3 3 3 2 3 2 3 3 3 2 2 1 1 1 1 0 1 1 1 1 1 0 1 2 2 1 0 0 0
8 8 8 8 7 7 6 6 6 5 4 4 4 3 3 3 3 2 2 2 2 2 3 3 2 1 1 1 0 0 1 1 1 2 2 1 1 1 1 2 2 1 0
8 8 9 9 8 8 7 6 6 5 5 5 4 3 3 3 3 2 2 1 2 2 2 2 2 1 1 1 1 0 1 1 1 2 2 2 2 2 2 2 2 2 2
8 9 9 9 9 8 8 7 7 6 5 5 4 3 2 2 2 2 1 1 1 2 2 1 1 1 1 1 1 1 1 1 1 2 2 2 1 1 2 2 2 2 3
8 8 9 9 9 9 8 8 7 6 6 5 5 4 3 2 2 2 2 1 1 1 1 1 0 1 1 1 1 1 1 1 2 2 2 2 1 1 2 2 3 3 4
7 8 8 9 9 9 9 8 7 7 6 5 4 4 3 3 2 2 2 1 1 1 1 0 0 0 0 1 2 2 1 2 1 1 1 2 2 1 2 2 3 3 4
7 8 8 8 9 8 9 8 7 7 6 6 5 4 3 3 2 2 1 1 1 1 0 1 1 1 1 1 1 2 2 2 2 2 2 2 3 2 2 2 2 3 3
6 7 8 9 9 8 8 8 7 7 7 6 5 5 4 3 2 1 1 1 1 0 1 1 1 1 1 2 2 3 2 2 2 2 2 3 2 2 3 2 3 3 3
6 7 7 8 8 8 7 7 7 6 6 6 5 5 4 3 2 1 1 1 0 1 1 1 1 2 2 2 2 2 2 2 2 2 2 3 2 3 2 3 3 3 3
6 6 7 7 7 7 7 7 6 6 6 6 5 5 4 3 2 2 1 1 1 1 1 1 1 2 2 2 2 2 2 2 2 2 2 3 3 3 3 3 3 3 3
5 6 6 7 7 7 7 6 6 6 5 5 5 4 4 3 3 2 2 1 1 1 1 1 2 2 2 2 2 2 2 2 3 3 3 2 2 3 3 4 3 3 4
4 5 6 6 7 7 7 6 6 6 5 5 4 4 4 4 3 3 2 2 1 1 1 2 2 2 1 3 3 3 2 2 3 3 3 3 2 1 1 2 4 5 5
3 4 5 6 6 6 6 6 6 6 6 5 4 4 4 3 3 3 3 2 2 2 2 1 1 1 1 2 1 3 3 3 3 3 3 4 2 1 2 2 4 4 5
2 3 4 5 5 6 6 5 6 6 5 5 4 4 4 4 3 3 3 3 2 1 1 1 1 1 1 2 2 4 4 3 3 3 4 4 3 2 3 4 4 4 4
1 2 3 5 5 6 6 6 5 5 5 4 4 4 4 3 3 3 2 2 1 1 1 1 1 1 1 2 2 4 3 3 4 3 3 3 3 2 4 4 5 5 4
1 2 3 4 5 5 6 6 5 4 3 3 3 3 3 3 2 2 2 1 1 1 1 0 1 1 1 2 2 5 3 3 3 3 3 2 1 1 3 4 5 6 5
2 2 3 4 4 4 5 5 5 4 3 2 2 2 2 3 2 1 1 1 1 1 0 0 0 0 1 1 2 4 3 3 4 4 3 1 2 1 4 6 6 5 6
3 3 3 3 3 4 5 4 4 3 3 3 2 2 2 2 2 2 1 1 1 2 1 1 1 1 0 0 1 0 3 5 4 4 4 2 0 4 6 6 4 5 7
3 3 3 4 3 4 4 4 3 3 3 3 3 2 2 2 2 2 2 2 2 2 1 1 1 1 1 1 4 3 4 5 4 4 3 3 4 6 6 6 6 7 7
2 2 3 3 3 3 3 3 3 3 3 3 3 2 2 1 1 1 2 2 1 1 1 2 2 2 2 2 2 2 2 4 4 4 3 5 7 8 6 5 6 6 6
2 2 2 3 3 3 2 2 3 3 3 2 2 2 2 2 1 1 0 1 0 0 2 2 2 3 3 3 4 3 3 4 3 4 4 4 3 4 4 5 5 5 5
2 2 2 3 3 2 2 2 2 3 3 3 2 2 2 1 1 1 1 2 1 2 1 2 3 2 2 2 2 3 4 4 4 4 3 3 4 4 5 5 5 5 5
Wind_Direction
168 164 166 163 156 150 144 143 135 124 125 120 117 109 100 96 91 81 73 77 75 75 74 78 79 78 82 81 91 93 103 98 91 108 108 108 111 104 106 105 107 122 132
174 173 174 169 170 164 160 158 154 147 148 128 126 118 103 102 94 81 79 79 78 77 85 79 91 87 96 99 95 93 90 109 119 96 130 143 138 140 119 145 157 141 150
186 178 176 175 175 171 169 158 152 149 146 142 145 134 132 131 110 98 90 73 71 70 76 85 82 91 107 108 116 129 166 153 143 349 330 326 108 137 136 130 131 151 157
190 181 174 175 177 173 166 160 157 151 147 149 138 140 131 115 102 105 87 81 72 68 78 83 91 100 99 114 169 133 225 228 219 173 322 330 331 274 171 160 133 143 159
185 182 178 173 174 170 165 158 156 150 149 151 143 153 138 125 118 107 97 88 83 76 71 74 83 91 95 83 31 61 261 241 274 280 266 230 225 265 254 216 169 137 159
179 177 172 167 169 166 165 160 157 154 156 159 151 152 137 126 120 117 111 114 98 88 73 75 71 72 55 47 339 249 221 280 312 299 279 258 248 246 243 226 224 236 232
173 170 168 167 168 166 164 160 157 158 160 159 157 158 152 149 142 139 121 116 105 92 75 63 59 51 45 14 335 275 312 289 284 279 281 279 278 274 258 237 234 245 240
170 170 169 169 169 167 165 164 164 164 161 158 153 149 156 159 133 117 112 112 88 74 78 74 65 40 16 355 343 304 325 301 292 288 292 282 290 296 270 251 246 243 234
169 171 171 170 169 168 166 166 165 165 164 157 149 147 149 129 116 132 144 118 111 111 97 103 73 32 5 341 305 328 322 312 288 278 257 273 282 280 280 270 269 269 265
168 171 170 169 166 166 163 164 163 162 157 153 156 146 143 143 138 133 106 89 89 67 94 79 19 8 309 308 290 282 308 293 297 303 308 290 279 282 276 275 276 278 278
163 165 167 164 162 163 161 161 159 157 156 154 152 148 148 141 139 139 132 114 71 32 354 348 338 328 330 318 291 296 292 294 304 301 289 287 300 290 285 287 285 280 273
153 158 160 161 162 163 162 161 160 159 158 156 157 157 152 153 162 151 131 124 109 323 334 321 322 309 324 316 302 301 308 299 298 306 312 300 298 302 293 296 287 286 283
148 149 152 156 157 158 159 159 159 159 157 157 158 158 162 164 170 153 138 151 166 290 320 315 310 315 317 312 313 309 311 309 306 307 301 297 298 293 298 288 280 273 262
151 151 152 156 154 154 158 160 162 161 159 159 160 164 170 174 171 167 176 189 223 260 298 299 304 302 300 306 315 307 307 310 310 304 293 292 290 285 284 272 270 268 268
158 158 159 156 158 158 160 164 164 164 163 164 164 164 168 171 177 185 194 201 227 249 273 283 290 289 276 316 321 296 289 301 301 297 289 290 315 342 313 299 294 281 268
167 167 163 158 163 165 166 166 169 167 167 171 170 166 172 180 189 194 197 207 230 266 276 281 285 294 325 41 2 308 293 293 289 292 292 273 247 248 274 310 310 298 276
180 180 177 173 169 168 168 172 172 172 173 176 178 175 180 185 194 203 196 209 230 253 273 287 303 314 355 42 1 307 286 283 288 288 288 286 286 275 279 265 250 261 267
178 182 187 179 172 167 170 170 171 174 177 180 183 180 188 191 197 207 212 219 226 227 254 284 287 295 16 40 336 303 271 280 282 280 278 278 282 292 297 279 273 266 257
179 184 188 178 166 166 163 160 162 165 172 179 182 188 196 198 203 210 213 216 225 228 230 259 275 277 339 31 331 307 276 276 277 274 274 275 271 331 308 274 268 266 260
119 149 162 160 153 159 157 158 159 162 171 180 183 183 188 196 200 204 216 214 217 214 224 231 297 322 330 32 352 311 281 285 282 271 255 206 239 293 290 269 266 266 270
81 114 138 144 144 150 155 158 157 162 161 155 159 177 169 171 173 177 184 193 206 196 207 181 240 283 323 75 55 345 311 305 295 289 281 280 107 265 277 275 268 272 276
81 98 112 119 132 147 158 160 158 151 146 145 139 140 157 174 151 154 164 184 201 198 205 212 245 232 221 53 94 3 302 306 294 291 292 309 337 267 265 264 271 274 267
93 100 110 115 126 144 157 160 149 146 148 146 143 147 144 156 162 173 174 187 214 242 248 262 284 305 315 182 171 196 239 270 276 295 319 287 261 258 247 232 239 249 256
98 111 121 123 116 121 136 149 151 154 154 154 162 165 159 150 144 197 198 204 224 245 260 286 298 308 309 330 332 310 278 253 266 290 272 231 237 245 254 246 243 252 262
107 125 126 121 113 114 130 143 153 161 164 172 190 190 177 152 158 156 263 198 143 313 281 297 311 313 316 358 357 321 320 313 317 305 288 287 280 272 269 269 270 271 268
130 128 121 116 115 122 128 135 161 178 187 196 209 208 193 173 179 156 110 73 130 130 189 267 288 306 330 323 320 297 290 294 292 280 282 294 294 295 289 286 281 273 274
Height
1511 1513 1514 1515 1516 1516 1516 1517 1517 1517 1517 1517 1518 1518 1519 1519 1519 1519 1519 1519 1518 1518 1518 1518 1517 1517 1518 1518 1518 1518 1519 1520 1520 1521 1521 1522 1522 1522 1522 1523 1523 1524 1524
1510 1512 1513 1514 1516 1516 1516 1517 1517 1517 1517 1517 1518 1519 1519 1520 1520 1520 1520 1520 1520 1519 1519 1518 1519 1519 1519 1519 1519 1520 1520 1521 1521 1522 1522 1522 1524 1522 1523 1523 1523 1524 1524
1508 1510 1512 1513 1515 1516 1516 1517 1517 1517 1518 1518 1519 1519 1519 1520 1521 1521 1521 1521 1520 1520 1520 1519 1520 1519 1520 1520 1520 1520 1520 1521 1522 1522 1522 1522 1522 1523 1523 1523 1523 1523 1523
1505 1508 1510 1512 1514 1515 1516 1516 1517 1517 1517 1518 1519 1519 1520 1521 1521 1521 1522 1521 1521 1521 1521 1520 1520 1520 1520 1520 1520 1520 1520 1520 1521 1521 1521 1522 1522 1522 1522 1523 1522 1522 1522
1503 1506 1509 1511 1513 1514 1515 1516 1516 1517 1517 1518 1518 1519 1520 1521 1522 1522 1522 1522 1522 1521 1521 1520 1520 1520 1520 1520 1519 1519 1519 1520 1521 1521 1521 1521 1521 1521 1521 1521 1522 1522 1521
1501 1504 1507 1509 1511 1513 1514 1515 1515 1516 1517 1518 1518 1519 1520 1520 1521 1522 1522 1522 1522 1522 1521 1521 1520 1520 1520 1519 1519 1519 1519 1519 1519 1519 1520 1520 1520 1520 1520 1520 1520 1520 1520
1500 1503 1505 1508 1510 1512 1513 1514 1515 1515 1516 1517 1518 1519 1520 1520 1521 1522 1522 1522 1522 1522 1521 1521 1520 1520 1519 1519 1518 1518 1518 1518 1517 1518 1518 1518 1518 1518 1519 1518 1518 1518 1519
1498 1501 1504 1506 1508 1510 1512 1513 1514 1515 1516 1517 1518 1519 1519 1521 1521 1521 1521 1522 1522 1521 1520 1520 1519 1519 1518 1518 1517 1518 1517 1517 1516 1517 1516 1517 1517 1517 1517 1518 1518 1517 1517
1497 1500 1503 1505 1507 1509 1511 1512 1513 1515 1516 1517 1518 1518 1519 1520 1520 1520 1521 1521 1521 1521 1520 1519 1519 1518 1517 1517 1516 1517 1516 1516 1516 1516 1515 1515 1515 1515 1515 1516 1516 1517 1515
1496 1499 1501 1503 1506 1508 1510 1512 1513 1514 1515 1516 1518 1519 1519 1519 1520 1520 1520 1520 1519 1519 1519 1518 1518 1517 1516 1516 1515 1515 1515 1514 1514 1514 1513 1513 1514 1514 1514 1514 1514 1514 1514
1494 1497 1500 1502 1504 1507 1509 1511 1512 1513 1514 1515 1516 1517 1518 1519 1519 1520 1520 1519 1519 1518 1518 1517 1517 1516 1515 1515 1514 1514 1513 1513 1513 1512 1512 1512 1511 1512 1512 1512 1512 1512 1512
1494 1496 1498 1501 1503 1506 1508 1509 1511 1512 1514 1515 1516 1516 1517 1518 1519 1519 1519 1518 1518 1518 1517 1517 1516 1515 1515 1513 1513 1513 1512 1512 1511 1511 1510 1510 1510 1510 1510 1510 1510 1510 1509
1493 1495 1497 1499 1502 1504 1506 1508 1509 1511 1513 1514 1515 1515 1516 1517 1517 1517 1517 1517 1517 1516 1516 1516 1515 1514 1513 1512 1512 1511 1511 1510 1510 1509 1508 1508 1508 1508 1508 1507 1508 1508 1508
1493 1495 1497 1498 1500 1502 1504 1506 1508 1510 1511 1512 1513 1514 1515 1515 1516 1516 1516 1516 1515 1515 1515 1514 1514 1513 1512 1511 1510 1510 1509 1509 1508 1507 1507 1506 1506 1506 1505 1505 1505 1505 1505
1493 1494 1496 1497 1499 1501 1503 1505 1507 1508 1510 1511 1512 1512 1513 1514 1514 1514 1514 1514 1514 1514 1513 1513 1512 1511 1511 1510 1508 1508 1508 1507 1506 1506 1505 1504 1504 1503 1503 1503 1503 1503 1503
1492 1493 1495 1496 1498 1499 1501 1503 1505 1507 1508 1509 1510 1511 1511 1512 1512 1512 1512 1512 1512 1511 1511 1510 1510 1509 1509 1507 1506 1506 1505 1504 1504 1503 1503 1502 1501 1501 1500 1500 1500 1500 1500
1491 1492 1493 1495 1496 1498 1499 1501 1503 1505 1506 1507 1508 1509 1509 1510 1510 1511 1510 1510 1510 1509 1509 1508 1507 1506 1506 1505 1504 1503 1502 1502 1501 1500 1500 1500 1500 1498 1498 1497 1497 1496 1496
1489 1491 1492 1493 1495 1496 1498 1499 1501 1503 1504 1505 1506 1506 1507 1508 1508 1508 1508 1507 1507 1507 1506 1506 1505 1504 1503 1502 1501 1500 1500 1499 1498 1497 1497 1496 1496 1495 1494 1494 1494 1494 1493
1488 1489 1491 1492 1493 1494 1496 1497 1499 1500 1502 1502 1503 1504 1504 1505 1505 1505 1505 1505 1504 1504 1504 1503 1502 1501 1500 1499 1498 1498 1497 1497 1496 1495 1494 1493 1492 1492 1491 1491 1491 1491 1490
1487 1488 1489 1491 1492 1493 1494 1495 1497 1498 1499 1500 1500 1501 1501 1502 1502 1503 1502 1502 1502 1501 1501 1500 1500 1499 1498 1497 1496 1495 1495 1494 1493 1492 1491 1490 1489 1488 1488 1488 1487 1487 1487
1486 1487 1488 1489 1490 1491 1492 1493 1495 1495 1496 1497 1497 1498 1498 1499 1500 1500 1500 1500 1500 1499 1498 1497 1497 1496 1495 1494 1493 1492 1491 1491 1491 1490 1489 1488 1486 1485 1484 1484 1484 1484 1484
1485 1486 1486 1487 1489 1490 1491 1492 1493 1493 1494 1495 1495 1496 1496 1497 1498 1497 1498 1498 1497 1497 1496 1495 1494 1494 1493 1492 1490 1490 1489 1488 1487 1487 1486 1484 1483 1482 1481 1481 1481 1481 1480
1485 1486 1486 1487 1487 1488 1489 1490 1491 1492 1492 1493 1493 1494 1494 1494 1495 1495 1495 1495 1495 1495 1495 1494 1493 1492 1491 1490 1488 1487 1486 1485 1484 1483 1482 1481 1479 1479 1478 1478 1477 1477 1478
1484 1485 1485 1486 1486 1487 1488 1489 1489 1490 1491 1492 1492 1492 1492 1493 1493 1493 1493 1493 1493 1493 1493 1492 1491 1490 1489 1488 1486 1485 1484 1483 1482 1481 1479 1478 1477 1476 1475 1475 1474 1474 1474
1484 1484 1484 1484 1485 1486 1487 1488 1488 1489 1489 1490 1490 1491 1491 1491 1491 1491 1491 1491 1490 1490 1490 1490 1489 1488 1486 1485 1483 1482 1481 1480 1479 1477 1477 1476 1475 1474 1473 1473 1472 1471 1470
1483 1484 1484 1484 1484 1485 1486 1486 1487 1487 1488 1488 1489 1489 1489 1489 1489 1489 1489 1488 1488 1488 1487 1486 1486 1484 1484 1482 1481 1480 1479 1478 1476 1475 1475 1474 1473 1472 1471 1470 1469 1467 1466